Pilotenausbildung PDF Drucken E-Mail

Im Rahmen einer Ausbildung können folgende Qualifikationen/Berechtigungen erworben werden:

  • Privatpilot (PPL-A)
  • Berufspilot (CPL)
  • Segelflugschein (PPL-C)
  • Hubschrauberschein (PPL-H)
  • Ballonfahrer (PPL-D)
  • Instrumentenflug (IFR)
  • Sportpilot (SPL)
  • Kunstflug


Mehr Informationen erhalten Sie, wenn Sie auf die jeweiligen Firmennamen klicken.

Motorflug R, CH, Sch Air Hamburg

R, CH, Sch, K Canair

R, CH, Sch Flugschule Hamburg

R, CH, Sch, K Hanseair

Sch Aeroclub Hamburg (Motorflug) e.V.

Sch

Vereinigung Hanseatischer Fliegerfreunde e.V.

Hubschrauber R, CH, Sch CityCopter

R, CH, Sch Nordcopters GmbH
Segelflugzeug Sch Luftsportverein Kreis Pinneberg e.V.

Sch Segelflug-Club Uetersen e.V.
Bannerwerbung
Aerial Sign
Ultraleichflug R, CH, Sch

JoyAIR Ultraleicht (Sportpilot SPL)

Ballonfahrt
Balloon Adventure Hamburg
 

Zufallsbild

Aktuelle Termine

Mo Di Mi Do Fr Sa So
29 30 31 1 2 3 4
5 6 7 8 9 10 11
12 13 14 15 16 17 18
19 20 21 22 23 24 25
26 27 28 29 30 1 2

Pilotenwetter

[source: ADDS]
METAR
EDDH 221120Z 11009KT 9999 FEW012 SCT150 BKN300 17/16 Q1010 NOSIG =
TAF
TAF EDDH 221100Z 2212/2318 08010KT CAVOK BECMG 2212/2215 23012KT TEMPO 2212/2221 27015G25KT PROB30 TEMPO 2212/2221 27020G45KT 2500 TSRAGR BKN020CB BECMG 2218/2221 26007KT BECMG 2222/2224 BKN012 TEMPO 2300/2308 BKN007 BECMG 2305/2308 28012KT BECMG 2308/2311 BKN025 TEMPO 2308/2316 28015G25KT =